Regional Weather Roundup
Issued by NWS

Home | Current Version | Previous Version | Text Only | Print | Product List | Glossary Off
Versions: 1 2 3 4 5 6 7 8 9 10 11 12 13 14 15 16 17 18 19 20 21 22 23 24 25 26 27 28 29 30 31 32 33 34 35 36 37 38 39 40 41 42 43 44 45 46 47 48 49 50

977
ASUS43 KLOT 082308
RWRIL

ILLINOIS REGIONAL WEATHER ROUNDUP
NATIONAL WEATHER SERVICE CHICAGO/ROMEOVILLE IL
500 PM CST MON FEB 08 2016

NOTE: "FAIR" INDICATES FEW OR NO CLOUDS BELOW 12,000 FEET WITH NO
SIGNIFICANT WEATHER AND/OR OBSTRUCTIONS TO VISIBILITY.

* THESE STATIONS ARE NOT UNDER NWS QUALITY CONTROL. THEY ALSO MAY NOT
  REPORT WEATHER SUCH AS PRECIPITATION OR FOG.

ILZ001-002-007-009-015-016-024-090000-
NORTHWEST ILLINOIS

CITY           SKY/WX    TMP DP  RH WIND       PRES   REMARKS
MOLINE         CLOUDY    20  11  68 NW17G32   29.87R WCI   5
STERLING*      CLOUDY    23  14  68 W16       29.79R WCI  10
SAVANNA*       CLOUDY    23  13  67 NW16      29.83R WCI   9
$$

ILZ003-004-008-010-011-017-018-090000-
NORTH CENTRAL ILLINOIS

CITY           SKY/WX    TMP DP  RH WIND       PRES   REMARKS
ROCKFORD       CLOUDY    25  16  68 NW13      29.78R WCI  14
FREEPORT*      CLOUDY    22  15  74 NW10G18   29.80R WCI  11
ROCHELLE*      CLOUDY    24  17  76 NW17      29.78R WCI  10
DE KALB*       CLOUDY    25  19  77 NW15G23   29.75R WCI  12
$$

ILZ005-006-012>014-019>023-090000-
NORTHEAST ILLINOIS

CITY           SKY/WX    TMP DP  RH WIND       PRES   REMARKS
CHICAGO-OHARE  CLOUDY    27  19  72 W14       29.72R WCI  16
CHICAGO-MIDWAY CLOUDY    29  19  66 NW12      29.73R WCI  19
AURORA         CLOUDY    27  19  72 W18       29.75R WCI  14
LANSING*       CLOUDY    28  22  79 W9        29.73R WCI  19
WAUKEGAN       CLOUDY    26  20  77 NW12      29.70R WCI  16
DUPAGE AIRPORT CLOUDY    26  18  71 NW14      29.73R WCI  14
KANKAKEE*      CLOUDY    26  19  74 W15       29.77R WCI  13
WHEELING       CLOUDY    27  20  75 NW14      29.73R WCI  16
MORRIS*        CLOUDY    26  19  75 W17       29.75R WCI  13
ROMEOVILLE*    CLOUDY    26  20  76 NW14      29.74R WCI  15
NORTHERLY ISL    N/A     28  20  71 W14         N/A  WCI  17
$$

LMZ740>746-090000-
SOUTHERN LAKE MICHIGAN

STATION/POSITION SKY/WX   TEMP    WIND        PRES    VSBY  WAVE
                          AIR SEA DIR/SP/G                  HT/PER
                          (F)     (DEG/KT/KT) (MB)    (MI)  (FT/S)
HARRISON CRIB              29     290/ 14/ 16   N/A
BURNHAM HARBOR             28     280/ 11/ 13   N/A
CALUMET HARBOR             28     250/  5/ 10 1005.6R
BURNS HARBOR               29     290/ 12/ 17 1006.4R
MICHIGAN CITY              29     250/ 17/ 18   N/A
$$

ILZ025>027-034>036-040-047-049-050-058-095>099-090000-
WEST-CENTRAL ILLINOIS

CITY           SKY/WX    TMP DP  RH WIND       PRES   REMARKS
QUINCY         LGT SNOW  19  12  74 NW21      29.94R WCI   3
GALESBURG*     FLURRIES  19  13  78 W21G28    29.87R WCI   2
MACOMB*        FLURRIES  19  14  81 NW24G30   29.92R WCI   2
JACKSONVILLE*  FLURRIES  23  15  71 W20G26    29.91R WCI   8
PITTSFIELD*    FLURRIES  21  13  72 NW15G23   29.94R WCI   8
$$

ILZ028>032-037-038-041>044-048-051>054-059>061-090000-
CENTRAL ILLINOIS

CITY           SKY/WX    TMP DP  RH WIND       PRES   REMARKS
PONTIAC        FLURRIES  24  20  82 W16       29.80R WCI  11
BLOOMINGTON    LGT SNOW  21  17  84 W16       29.82R FOG     WCI   7
DECATUR        LGT SNOW  21  14  74 W20G26    29.85R WCI   6
PEORIA         LGT SNOW  20  13  74 NW10G18   29.85R WCI   9
LACON*         FLURRIES  21  15  77 W12G21    29.83R WCI   9
LINCOLN*       FLURRIES  22  16  78 W7G20     29.86R WCI  13
SPRINGFIELD    LGT SNOW  21  15  78 NW13      29.89R WCI   9
TAYLORVILLE    LGT SNOW  21  16  79 W16       29.88R WCI   7
$$

ILZ033-039-045-046-055>057-062-063-090000-
EAST-CENTRAL ILLINOIS

CITY           SKY/WX    TMP DP  RH WIND       PRES   REMARKS
CHAMPAIGN      LGT SNOW  22  17  81 W18       29.81R WCI   7
RANTOUL*       CLOUDY    24  19  80 NW17      29.79R WCI  10
MATTOON        LGT SNOW  20  16  84 W18       29.83R FOG     WCI   5
PARIS*         FLURRIES  23  18  83 W18G26    29.82R WCI   8
$$

ILZ079-100>102-090000-
SOUTHWEST ILLINOIS

CITY           SKY/WX    TMP DP  RH WIND       PRES   REMARKS
ALTON          FLURRIES  23  14  68 NW16G24   29.93R WCI  10
CAHOKIA*       FLURRIES  26  15  63 NW21      29.95R WCI  12
SPARTA*        FLURRIES  25  17  70 NW8G18    29.94R WCI  16
$$

ILZ064>066-069>071-074>076-080>082-084>086-088>090-092>094-090000-
SOUTH-CENTRAL ILLINOIS

CITY           SKY/WX    TMP DP  RH WIND       PRES   REMARKS
CARBONDALE     FLURRIES  27  17  66 NW16G28   29.93R WCI  15
CAIRO*         CLOUDY    32  21  63 NW13G23   29.93R WCI  22
EFFINGHAM*     LGT SNOW  22  19  89 W13       29.89R WCI  10
MARION         LGT SNOW  27  23  86 NW17      29.93R WCI  14
MT. VERNON     CLOUDY    25  12  58 W8        29.90R WCI  16
CENTRALIA*     LGT SNOW  25  19  80 NW16      29.90R WCI  12
SALEM*         LGT SNOW  25  17  74 NW18G26   29.90R WCI  11
METROPOLIS*    CLOUDY    31  21  65 W15       29.92R WCI  20
$$

ILZ067-068-072-073-078-083-087-091-090000-
SOUTHEAST ILLINOIS

CITY           SKY/WX    TMP DP  RH WIND       PRES   REMARKS
LAWRENCEVILLE  SNOW      23  19  85 W22       29.86R WCI   8
FLORA*         LGT SNOW  25  19  77 NW17G24   29.89R WCI  11
FAIRFIELD*     LGT SNOW  24  20  86 NW8       29.89R WCI  15
HARRISBURG*    CLOUDY    28  17  63 NW18G28   29.91R WCI  15
ROBINSON*      LGT SNOW  22  19  87 NW18G24   29.87R VSB 3/4 WCI   7
CARMI*         LGT SNOW  26  23  89 NW15      29.89R VSB 1   WCI  13
$$

ABBREVIATIONS USED IN REMARKS
   TC - TEMPERATURE IN CELSIUS
  WCI - WIND CHILL INDEX
   HX - HEAT INDEX
  VSB - VISIBILITY
$$





USA.gov is the U.S. government's official web portal to all federal, state and local government web resources and services.